Location: Musselshell
(46.5176°N, 108.0911°W)
Time: 11:27:23
(UTC+00:00)

EO-88 - Pass Details

Date: 27 June 2022
Orbit: 453 x 461 km, 97.3° (Epoch: 13 August)

Event Time Altitude Azimuth Distance (km) Brightness Sun altitude
Exits shadow 05:17:03 13° 211° (SSW) 1,460 ? -15.2°
Maximum altitude 05:19:33 26° 265° (W) 961 ? -15.4°
Drops below altitude 10° 05:22:33 10° 323° (NW) 1,638 ? -15.6°
Sets 05:24:51 0° 337° (NNW) 2,520 ? -15.8°
